SIT-2086

Last updated on Mon Sep 15 2025 00:03:09 GMT+0000 (Coordinated Universal Time)

1 61764U 24199AF 25257.23336513 .00011245 00000+0 30062-3 0 9992 2 61764 97.3377 126.3251 0008003 186.8320 173.2817 15.38206830 91815
UTC large
Height (km)
Speed (km/s)
/
Latitude / Longitude
Inclination (degrees)
Orbital Period (minutes)
Azimuth
Elevation
Range (km)
Doppler Factor

Next 0 passes for location: London (51.5072 / 0.1276)

Sorry there are no passes over London.